Regional Weather Roundup
Issued by NWS Newport/Morehead, NC

Current Version | Previous Version | Graphics & Text | Print | Product List | Glossary On
Versions: 1 2 3 4 5 6 7 8 9 10 11 12 13 14 15 16 17 18 19 20 21 22 23 24 25 26 27 28 29 30 31 32 33 34 35 36 37 38 39 40 41 42 43 44 45 46 47 48 49 50
621 ASUS42 KMHX 031825 RWRMHX WEATHER ROUNDUP FOR EASTERN NORTH CAROLINA NATIONAL WEATHER SERVICE NEWPORT/MOREHEAD CITY NC 200 PM EDT TUE MAY 03 2016 NOTE: "FAIR" INDICATES FEW OR NO CLOUDS BELOW 12,000 FEET WITH NO SIGNIFICANT WEATHER AND/OR OBSTRUCTIONS TO VISIBILITY NCZ015>017-031-032-045>047-102-103-031900- NORTH COAST CITY SKY/WX TMP DP RH WIND PRES REMARKS EDENTON CLOUDY 71 69 93 S8 29.80F ELIZABETH CITY CLOUDY 70 65 84 SW13 29.79F KITTY HAWK CLOUDY 71 66 85 SW6 29.79F MANTEO NOT AVBL $$ NCZ045>047-081-094-103-104-031900- CENTRAL COAST CITY SKY/WX TMP DP RH WIND PRES REMARKS FRISCO LGT RAIN 68 64 87 W12G18 29.83F SWANQUARTER NOT AVBL $$ NCZ095-097-098-100-101-031900- SOUTHERN COAST CITY SKY/WX TMP DP RH WIND PRES REMARKS BEAUFORT CLOUDY 67 65 93 SW9 29.83F CEDAR ISLAND NOT AVBL JACKSONVILLE MOSUNNY 73 66 78 S10 29.82F PINEY ISLAND NOT AVBL WILMINGTON PTSUNNY 74 67 78 SW7 29.83F $$ NCZ011>013-027>030-043-044-078>080-089-090>093-098-031900- COASTAL PLAIN CITY SKY/WX TMP DP RH WIND PRES REMARKS AHOSKIE CLOUDY 71 66 83 S5 29.78F CLINTON PTSUNNY 74 69 83 CALM 29.81F ELIZABETHTOWN MOSUNNY 77 66 68 S8 29.81F GOLDSBORO PTSUNNY 73 73 100 SW9 29.78F GREENVILLE CLOUDY 70 66 88 SW8 29.84R HAVELOCK CLOUDY 69 66 90 S8 29.82F KENANSVILLE CLOUDY 73 65 76 CALM 29.82S KINSTON CLOUDY 72 66 83 SW7 29.82F NEW BERN CLOUDY 71 67 87 S8 29.83F RICHLANDS MOSUNNY 74 67 78 S8 29.82F ROCKY MOUNT CLOUDY 75 67 76 SW13 29.79F WASHINGTON CLOUDY 70 64 83 SW9 29.81S WHITEVILLE MOSUNNY 77 67 71 SW3 29.81F $$ AMZ130-135-150-152-154-156-158-170-250-252-270-ANZ085-086-088-633-658-670-031900- MARINE OBSERVATIONS STATION/POSITION TIME TEMP WIND PRES WAVE SWELL AIR SEA DIR/SP/G HT/PER HT/PER (UTC) (F) (DEG/KT/KT) (MB) (FT/S) (FT/S) CHESAPEAKE LIGHT 1800 64 200/ 15/ 16 1009.1 64 E VA BEACH 1750 58 54 200/ 8/ 10 1009.2 3/ 6 3/ 6 DUCK 1800 68 67 210/ 11/ 15 1008.4 2 E DUCK 1711 58 N/A 2/ 7 OREGON INLET 1800 69 71 210/ 10/ 12 1009.1 13E OREGON INLT 1800 62 N/A 5/ 7 5/ 7 HATTERAS CG 1800 69 69 220/ 10/ 15 1009.6 DIAMOND BUOY 1750 70 71 230/ 14/ 17 1010.8 5/ 7 3/ 7 CAPE LOOKOUT 1800 67 190/ 10/ 12 1009.8 BEAUFORT LAB 1800 67 68 210/ 6/ 9 1009.2 30 SE NEW RVR IN 1725 70 N/A 6/ 7 27 SE WRIGHTSVLE 1808 71 72 180/ 10/ 14 N/A 5 SE WRIGHTSVLE 1708 69 69 200/ 4/ 8 1012.2 225 S CAPE HAT 1750 74 74 180/ 16/ 19 1014.2 4/ 5 2/ 9 41 SE CHARLESTON 1750 74 75 210/ 12/ 16 1010.1 5/ 7 3/ 7 $$

USA.gov is the U.S. government's official web portal to all federal, state and local government web resources and services.